Location: Cruquius
(52.3348°N, 4.6319°E)
Time: 20:30:41
(UTC+00:00)

Thor Agena Rocket - Pass Details

Date: 12 May 2021
Orbit: 760 x 807 km, 99.0° (Epoch: 21 June)

Event Time Altitude Azimuth Distance (km) Brightness Sun altitude
Rises 23:32:25 0° 17° (NNE) 3,305 8.1 -19.3°
Reaches altitude 10° 23:34:45 10° 20° (NNE) 2,377 7.1 -19.3°
Maximum altitude 23:40:00 70° 104° (ESE) 856 3.6 -19.3°
Enters shadow 23:42:05 37° 177° (S) 1,232 4.0 -19.3°
